This is the latest recevied weather packets stored in our database for station/object KA8DUX-2. If no packets are shown the sender has not sent any weather packets the latest 10 day(s).
| Time | Temp. | Humidity | Pressure | Rain* | Wind** | Luminosity | Snow |
|---|---|---|---|---|---|---|---|
| 1778153547 | 3.89° C | 82% | 1012.4 hPa | 0 mm | - | 27 W/m² | - |
| 1778153244 | 3.33° C | 84% | 1012.4 hPa | 0 mm | - | 25 W/m² | - |
| 1778152941 | 2.78° C | 85% | 1012.1 hPa | 0 mm | - | 23 W/m² | - |
| 1778152639 | 2.22° C | 87% | 1012.3 hPa | 0 mm | - | 21 W/m² | - |
| 1778152336 | 2.22° C | 87% | 1012.2 hPa | 0 mm | - | 19 W/m² | - |
| 1778152031 | 2.22° C | 87% | 1012.3 hPa | 0 mm | - | 18 W/m² | - |
| 1778151728 | 2.22° C | 86% | 1012.1 hPa | 0 mm | - | 16 W/m² | - |
| 1778151425 | 2.22° C | 87% | 1012 hPa | 0 mm | - | 13 W/m² | - |
| 1778151121 | 1.67° C | 86% | 1011.8 hPa | 0 mm | - | 11 W/m² | - |
| 1778150819 | 2.22° C | 86% | 1011.8 hPa | 0 mm | - | 8 W/m² | - |
| 1778150514 | 2.22° C | 86% | 1012 hPa | 0 mm | - | 6 W/m² | - |
| 1778150211 | 1.67° C | 86% | 1012 hPa | 0 mm | - | 3 W/m² | - |
| 1778149908 | 1.67° C | 85% | 1012 hPa | 0 mm | - | 2 W/m² | - |
| 1778149604 | 1.67° C | 85% | 1011.7 hPa | 0 mm | - | 0 W/m² | - |
| 1778149300 | 2.22° C | 84% | 1012 hPa | 0 mm | - | 0 W/m² | - |
| 1778148996 | 2.22° C | 84% | 1011.7 hPa | 0 mm | - | 0 W/m² | - |
| 1778148692 | 2.22° C | 83% | 1011.8 hPa | 0 mm | - | 0 W/m² | - |
| 1778148390 | 2.22° C | 82% | 1011.6 hPa | 0 mm | - | 0 W/m² | - |
| 1778148088 | 2.22° C | 82% | 1011.8 hPa | 0 mm | - | 0 W/m² | - |
| 1778147786 | 2.78° C | 80% | 1011.6 hPa | 0 mm | - | 0 W/m² | - |
| 1778147482 | 2.78° C | 80% | 1011.8 hPa | 0 mm | - | 0 W/m² | - |
| 1778147179 | 2.78° C | 80% | 1011.9 hPa | 0 mm | - | 0 W/m² | - |
| 1778146875 | 2.78° C | 80% | 1012 hPa | 0 mm | - | 0 W/m² | - |
| 1778146573 | 3.33° C | 79% | 1011.8 hPa | 0 mm | - | 0 W/m² | - |
| 1778146272 | 3.33° C | 78% | 1011.9 hPa | 0 mm | - | 0 W/m² | - |
* Rain latest hour (hover to see other rain measurements)
** Current wind speed in m/s (hover to see current wind gust speed)